Location: Recife
(8.0585°S, 34.8848°W)
Time: 05:39:33
(UTC-03:00)

Hubble Space Telescope - Pass Details

Date: 25 September 2021
Orbit: 535 x 538 km, 28.5° (Epoch: 23 October)

Event Time Altitude Azimuth Distance (km) Brightness Sun altitude
Exits shadow 04:26:59 - 218° (SW) 2,558 3.9 -10.8°
Reaches altitude 10° 04:29:31 10° 200° (SSW) 1,789 3.3 -10.2°
Maximum altitude 04:32:18 17° 157° (SSE) 1,386 3.2 -9.5°
Drops below altitude 10° 04:35:04 10° 115° (ESE) 1,784 4.7 -8.8°
Sets 04:37:57 0° 95° (E) 2,671 6.9 -8.1°
